KD5NDU-15 Weather Reports


time (UTC)temp
F
wind
direction
speed
knots
gust
knots
rain 1hr
in
rain 24hr
in
rain mn
in
humidity
%
barometer
mb
20260831034141 80 162 0.9 2.6 0.00 0.00 0.00 81 1017.9
20260831033641 80 168 0.9 2.6 0.00 0.00 0.00 81 1017.9
20260831033141 80 170 0.9 2.6 0.00 0.00 0.00 81 1017.9
20260831032641 80 167 0.0 2.6 0.00 0.00 0.00 81 1017.8
20260831032141 80 162 0.9 1.7 0.00 0.00 0.00 80 1017.7
20260831031641 80 166 0.9 2.6 0.00 0.00 0.00 80 1017.7
20260831031141 81 155 0.0 1.7 0.00 0.00 0.00 80 1017.6
20260831030641 81 145 0.9 1.7 0.00 0.00 0.00 79 1017.7
20260831030141 81 135 0.9 2.6 0.00 0.00 0.00 79 1017.6
20260831025641 81 195 0.9 3.5 0.00 0.00 0.00 79 1017.6
20260831025141 81 178 0.9 3.5 0.00 0.00 0.00 79 1017.4
20260831024641 81 191 0.0 1.7 0.00 0.00 0.00 78 1017.5
20260831024141 82 191 0.0 0.9 0.00 0.00 0.00 78 1017.6
20260831023641 82 189 0.0 0.0 0.00 0.00 0.00 77 1017.5
20260831023141 82 189 0.0 0.0 0.00 0.00 0.00 77 1017.4
20260831022641 83 189 0.0 0.9 0.00 0.00 0.00 76 1017.3
20260831022141 83 189 0.9 1.7 0.00 0.00 0.00 76 1017.3
20260831021641 83 190 0.9 1.7 0.00 0.00 0.00 75 1017.3
20260831021141 83 183 0.0 2.6 0.00 0.00 0.00 75 1017.2
20260831020641 84 166 0.0 0.9 0.00 0.00 0.00 74 1017.1
20260831020141 84 166 0.0 1.7 0.00 0.00 0.00 73 1017.0
20260831015641 84 166 0.9 1.7 0.00 0.00 0.00 73 1016.9
20260831015141 84 164 0.9 2.6 0.00 0.00 0.00 73 1016.9
20260831014641 84 165 0.9 2.6 0.00 0.00 0.00 73 1016.9
20260831014141 84 172 0.9 1.7 0.00 0.00 0.00 73 1016.9
20260831013641 84 158 0.9 2.6 0.00 0.00 0.00 73 1016.9
20260831013141 85 165 0.9 1.7 0.00 0.00 0.00 72 1016.8
20260831012641 85 170 0.9 0.9 0.00 0.00 0.00 72 1016.8
20260831012141 85 167 0.9 2.6 0.00 0.00 0.00 72 1016.8
20260831011641 85 197 0.0 1.7 0.00 0.00 0.00 72 1016.7
20260831011141 85 203 0.0 0.9 0.00 0.00 0.00 71 1016.8
20260831010641 86 203 0.9 1.7 0.00 0.00 0.00 71 1016.8
20260831010141 86 205 0.9 1.7 0.00 0.00 0.00 70 1016.8
20260831005641 86 189 0.9 3.5 0.00 0.00 0.00 70 1016.8
20260831005141 86 181 0.9 1.7 0.00 0.00 0.00 70 1016.7
20260831004641 86 207 1.7 1.7 0.00 0.00 0.00 69 1016.7
20260831004141 87 174 1.7 2.6 0.00 0.00 0.00 69 1016.6
20260831003641 87 208 1.7 4.3 0.00 0.00 0.00 68 1016.7
20260831003141 87 207 1.7 3.5 0.00 0.00 0.00 68 1016.6
20260831002641 88 197 2.6 4.3 0.00 0.00 0.00 67 1016.5
20260831002141 88 219 2.6 5.2 0.00 0.00 0.00 67 1016.5
20260831001641 88 212 2.6 5.2 0.00 0.00 0.00 66 1016.6
20260831001141 88 176 2.6 6.1 0.00 0.00 0.00 66 1016.6
20260831000641 89 179 1.7 6.1 0.00 0.00 0.00 65 1016.8
20260831000141 89 215 2.6 4.3 0.00 0.00 0.00 65 1016.8
20260830235641 89 142 2.6 7.0 0.00 0.00 0.00 65 1016.7
20260830235141 90 217 2.6 4.3 0.00 0.00 0.00 64 1016.7
20260830234641 90 146 3.5 5.2 0.00 0.00 0.00 63 1016.8
20260830234141 90 176 3.5 7.0 0.00 0.00 0.00 63 1016.8
20260830233641 90 159 3.5 7.8 0.00 0.00 0.00 62 1016.8
20260830233141 91 219 3.5 7.0 0.00 0.00 0.00 63 1016.7
20260830232641 91 203 2.6 7.8 0.00 0.00 0.00 62 1016.7
20260830232141 91 198 2.6 5.2 0.00 0.00 0.00 62 1016.6
20260830231641 91 214 3.5 6.1 0.00 0.00 0.00 62 1016.6
20260830231141 91 207 4.3 6.1 0.00 0.00 0.00 61 1016.5
20260830230641 91 212 3.5 5.2 0.00 0.00 0.00 61 1016.6
20260830230141 92 184 3.5 6.1 0.00 0.00 0.00 61 1016.5
20260830225641 92 122 4.3 8.7 0.00 0.00 0.00 61 1016.6
20260830225141 92 235 3.5 9.6 0.00 0.00 0.00 60 1016.5
20260830224641 92 232 3.5 7.0 0.00 0.00 0.00 59 1016.5
20260830224141 93 88 4.3 6.1 0.00 0.00 0.00 58 1016.5
20260830223641 93 238 4.3 9.6 0.00 0.00 0.00 57 1016.5
20260830223141 93 214 3.5 6.1 0.00 0.00 0.00 58 1016.5
20260830222641 93 186 4.3 9.6 0.00 0.00 0.00 58 1016.5
20260830222141 93 182 5.2 7.8 0.00 0.00 0.00 58 1016.5
20260830221641 94 214 4.3 8.7 0.00 0.00 0.00 59 1016.5
20260830221141 94 172 3.5 7.8 0.00 0.00 0.00 57 1016.5
20260830220641 95 146 3.5 6.1 0.00 0.00 0.00 58 1016.6
20260830220141 95 194 3.5 7.0 0.00 0.00 0.00 57 1016.6
20260830215641 95 105 3.5 6.1 0.00 0.00 0.00 56 1016.6
20260830215141 95 177 3.5 8.7 0.00 0.00 0.00 55 1016.6
20260830214641 95 219 4.3 9.6 0.00 0.00 0.00 56 1016.7
20260830214141 95 205 4.3 8.7 0.00 0.00 0.00 56 1016.5
20260830213641 95 198 3.5 7.8 0.00 0.00 0.00 56 1016.6
20260830213141 95 247 3.5 6.1 0.00 0.00 0.00 55 1016.6
20260830212641 94 231 5.2 7.8 0.00 0.00 0.00 57 1016.7
20260830212141 94 205 5.2 9.6 0.00 0.00 0.00 57 1016.7
20260830211641 94 193 4.3 10.4 0.00 0.00 0.00 57 1016.8
20260830211141 94 235 4.3 9.6 0.00 0.00 0.00 57 1016.8
20260830210641 94 207 5.2 9.6 0.00 0.00 0.00 57 1016.9
20260830210141 95 229 4.3 7.8 0.00 0.00 0.00 57 1016.9
20260830205641 94 192 4.3 10.4 0.00 0.00 0.00 58 1016.9
20260830205141 94 207 5.2 10.4 0.00 0.00 0.00 58 1016.9
20260830204641 94 195 5.2 10.4 0.00 0.00 0.00 58 1017.0
20260830204141 95 210 4.3 13.0 0.00 0.00 0.00 57 1017.1
20260830203641 95 245 4.3 7.0 0.00 0.00 0.00 57 1017.2
20260830203141 94 151 4.3 7.8 0.00 0.00 0.00 58 1017.2
20260830202641 93 192 3.5 8.7 0.00 0.00 0.00 61 1017.4
20260830202141 93 205 4.3 9.6 0.00 0.00 0.00 59 1017.4
20260830201641 93 231 3.5 8.7 0.00 0.00 0.00 59 1017.4
20260830201141 93 199 2.6 9.6 0.00 0.00 0.00 59 1017.5
20260830200641 94 205 2.6 3.5 0.00 0.00 0.00 58 1017.6
20260830200141 94 213 3.5 7.0 0.00 0.00 0.00 58 1017.7
20260830195641 95 200 4.3 8.7 0.00 0.00 0.00 57 1017.6
20260830195141 95 210 4.3 8.7 0.00 0.00 0.00 58 1017.7
20260830194641 95 210 3.5 8.7 0.00 0.00 0.00 58 1017.6
20260830194141 94 158 3.5 7.8 0.00 0.00 0.00 58 1017.7
20260830193641 95 127 3.5 7.8 0.00 0.00 0.00 57 1017.7
20260830193141 94 242 3.5 7.0 0.00 0.00 0.00 60 1017.8
20260830192641 93 172 2.6 7.8 0.00 0.00 0.00 60 1017.7
20260830192141 93 46 2.6 6.1 0.00 0.00 0.00 61 1018.0
20260830191641 93 172 2.6 5.2 0.00 0.00 0.00 62 1017.9
20260830191142 93 134 3.5 7.0 0.00 0.00 0.00 61 1018.1
20260830190641 95 203 3.5 7.0 0.00 0.00 0.00 58 1018.2
20260830190142 95 244 3.5 7.8 0.00 0.00 0.00 58 1018.0
20260830185641 94 124 2.6 5.2 0.00 0.00 0.00 60 1018.1
20260830185142 94 50 3.5 5.2 0.00 0.00 0.00 61 1018.1
20260830184642 94 257 3.5 7.0 0.00 0.00 0.00 61 1018.3
20260830184142 94 135 2.6 7.8 0.00 0.00 0.00 62 1018.3
20260830183642 93 249 2.6 6.1 0.00 0.00 0.00 62 1018.3
20260830183142 94 144 4.3 5.2 0.00 0.00 0.00 60 1018.3
20260830182642 94 216 4.3 8.7 0.00 0.00 0.00 60 1018.3
20260830182142 93 202 3.5 5.2 0.00 0.00 0.00 61 1018.3
20260830181642 91 229 3.5 7.0 0.00 0.00 0.00 65 1018.5
20260830181142 91 91 2.6 7.0 0.00 0.00 0.00 64 1018.4
20260830180642 91 196 3.5 4.3 0.00 0.00 0.00 65 1018.5
20260830180142 92 215 3.5 9.6 0.00 0.00 0.00 63 1018.6
20260830175642 92 205 3.5 9.6 0.00 0.00 0.00 63 1018.6
20260830175142 92 174 3.5 7.0 0.00 0.00 0.00 62 1018.6
20260830174642 93 202 4.3 7.8 0.00 0.00 0.00 64 1018.7
20260830174142 92 180 3.5 8.7 0.00 0.00 0.00 63 1018.7
20260830173642 91 83 2.6 8.7 0.00 0.00 0.00 66 1018.6
20260830173142 91 214 3.5 6.1 0.00 0.00 0.00 66 1018.8
20260830172642 91 207 4.3 7.0 0.00 0.00 0.00 66 1018.8
20260830172142 92 149 3.5 7.0 0.00 0.00 0.00 66 1018.8
20260830171642 91 205 3.5 9.6 0.00 0.00 0.00 67 1019.0
20260830171142 91 240 3.5 7.0 0.00 0.00 0.00 68 1019.0
20260830170642 91 221 3.5 6.1 0.00 0.00 0.00 69 1019.1
20260830170142 90 225 3.5 8.7 0.00 0.00 0.00 69 1019.2
20260830165642 91 255 4.3 10.4 0.00 0.00 0.00 70 1019.3
20260830165142 90 217 4.3 8.7 0.00 0.00 0.00 69 1019.2
20260830164642 90 140 4.3 11.3 0.00 0.00 0.00 68 1019.4
20260830164142 90 181 5.2 10.4 0.00 0.00 0.00 69 1019.4
20260830163642 90 195 5.2 11.3 0.00 0.00 0.00 70 1019.6
20260830163142 90 176 4.3 10.4 0.00 0.00 0.00 71 1019.6
20260830162642 90 248 4.3 10.4 0.00 0.00 0.00 71 1019.5
20260830162142 89 255 3.5 7.0 0.00 0.00 0.00 73 1019.5
20260830161642 89 222 3.5 7.8 0.00 0.00 0.00 73 1019.5
20260830161142 88 240 5.2 8.7 0.00 0.00 0.00 73 1019.6
20260830160642 88 250 5.2 9.6 0.00 0.00 0.00 73 1019.5
20260830160142 88 255 4.3 7.0 0.00 0.00 0.00 74 1019.5
20260830155642 88 196 4.3 8.7 0.00 0.00 0.00 72 1019.6
20260830155142 88 166 3.5 7.8 0.00 0.00 0.00 73 1019.5
20260830154642 88 220 3.5 6.1 0.00 0.00 0.00 73 1019.5
20260830154142 87 161 4.3 8.7 0.00 0.00 0.00 74 1019.5
20260830153642 87 244 3.5 7.8 0.00 0.00 0.00 74 1019.5
20260830153142 87 253 3.5 5.2 0.00 0.00 0.00 75 1019.5
20260830152642 87 250 3.5 7.0 0.00 0.00 0.00 75 1019.6
20260830152142 87 153 3.5 6.1 0.00 0.00 0.00 75 1019.6
20260830151642 86 243 3.5 7.0 0.00 0.00 0.00 76 1019.7
20260830151142 86 260 3.5 7.0 0.00 0.00 0.00 76 1019.5
20260830150642 86 203 3.5 7.0 0.00 0.00 0.00 77 1019.6
20260830150142 85 231 3.5 7.8 0.00 0.00 0.00 77 1019.5
20260830145642 85 243 3.5 6.1 0.00 0.00 0.00 78 1019.5
20260830145142 85 214 3.5 7.0 0.00 0.00 0.00 79 1019.5
20260830144642 85 226 2.6 7.0 0.00 0.00 0.00 79 1019.6
20260830144142 84 241 2.6 5.2 0.00 0.00 0.00 80 1019.7
20260830143642 84 205 2.6 5.2 0.00 0.00 0.00 81 1019.7
20260830143142 83 204 2.6 5.2 0.00 0.00 0.00 81 1019.8
20260830142642 83 244 2.6 6.1 0.00 0.00 0.00 82 1019.8
20260830142142 83 243 2.6 6.1 0.00 0.00 0.00 82 1019.8
20260830141642 83 247 1.7 4.3 0.00 0.00 0.00 82 1019.8
20260830141142 82 264 1.7 3.5 0.00 0.00 0.00 84 1019.6
20260830140642 82 255 1.7 5.2 0.00 0.00 0.00 84 1019.7
20260830140142 81 199 2.6 5.2 0.00 0.00 0.00 86 1019.6
20260830135642 80 244 3.5 5.2 0.00 0.00 0.00 86 1019.5
20260830135142 80 230 3.5 6.1 0.00 0.00 0.00 87 1019.5
20260830134642 80 210 2.6 5.2 0.00 0.00 0.00 88 1019.6
20260830134142 79 246 2.6 5.2 0.00 0.00 0.00 89 1019.5
20260830133642 79 236 2.6 6.1 0.00 0.00 0.00 89 1019.5
20260830133142 78 214 2.6 4.3 0.00 0.00 0.00 90 1019.5
20260830132642 77 168 2.6 4.3 0.00 0.00 0.00 90 1019.5
20260830132142 77 208 1.7 3.5 0.00 0.00 0.00 91 1019.4
20260830131642 76 196 1.7 4.3 0.00 0.00 0.00 91 1019.4
20260830131142 76 199 1.7 3.5 0.00 0.00 0.00 92 1019.4
20260830130642 75 204 1.7 4.3 0.00 0.00 0.00 92 1019.4
20260830130142 75 165 1.7 2.6 0.00 0.00 0.00 93 1019.5
20260830125642 74 201 1.7 3.5 0.00 0.00 0.00 93 1019.4
20260830125142 74 172 1.7 3.5 0.00 0.00 0.00 93 1019.3
20260830124642 73 197 1.7 3.5 0.00 0.00 0.00 93 1019.3
20260830124142 73 184 0.9 3.5 0.00 0.00 0.00 93 1019.2
20260830123642 73 185 0.9 1.7 0.00 0.00 0.00 94 1019.2
20260830123142 72 186 0.9 3.5 0.00 0.00 0.00 94 1019.2
20260830122642 72 187 0.9 2.6 0.00 0.00 0.00 94 1019.3
20260830122142 72 172 0.9 1.7 0.00 0.00 0.00 94 1019.1
20260830121642 72 167 0.9 2.6 0.00 0.00 0.00 94 1019.0
20260830121142 72 160 0.9 3.5 0.00 0.00 0.00 94 1019.1
20260830120642 72 179 0.9 2.6 0.00 0.00 0.00 94 1019.1
20260830120142 72 164 1.7 3.5 0.00 0.00 0.00 93 1019.0
20260830115642 72 178 0.9 4.3 0.00 0.00 0.00 93 1018.8
20260830115142 72 172 0.0 2.6 0.00 0.00 0.00 93 1018.7
20260830114642 72 189 0.0 0.0 0.00 0.00 0.00 92 1018.5
20260830114142 72 189 0.0 0.0 0.00 0.00 0.00 90 1018.5
20260830113642 72 189 0.0 0.0 0.00 0.00 0.00 92 1018.4
20260830113142 72 189 0.0 0.0 0.00 0.00 0.00 93 1018.4
20260830112642 72 167 0.0 0.0 0.00 0.00 0.00 92 1018.2
20260830112142 72 178 0.9 2.6 0.00 0.00 0.00 92 1018.3
20260830111642 72 165 0.9 2.6 0.00 0.00 0.00 93 1018.2
20260830111142 72 195 0.9 1.7 0.00 0.00 0.00 92 1018.1
20260830110642 72 174 0.9 2.6 0.00 0.00 0.00 92 1018.1
20260830110142 72 173 0.9 1.7 0.00 0.00 0.00 92 1018.2
20260830105642 72 178 0.0 0.9 0.00 0.00 0.00 91 1018.1
20260830105142 73 178 0.9 1.7 0.00 0.00 0.00 91 1018.1
20260830104642 73 176 0.9 2.6 0.00 0.00 0.00 91 1018.1
20260830104142 73 176 0.9 2.6 0.00 0.00 0.00 91 1018.0
20260830103642 73 182 0.9 2.6 0.00 0.00 0.00 91 1018.0
20260830103142 73 158 0.9 2.6 0.00 0.00 0.00 91 1017.9
20260830102642 73 189 0.9 1.7 0.00 0.00 0.00 91 1017.8
20260830102142 73 193 0.9 1.7 0.00 0.00 0.00 92 1017.7
20260830101642 73 195 0.0 1.7 0.00 0.00 0.00 91 1017.7
20260830101142 73 194 0.0 1.7 0.00 0.00 0.00 90 1017.6
20260830100642 73 194 0.9 1.7 0.00 0.00 0.00 90 1017.5
20260830100142 73 194 0.9 2.6 0.00 0.00 0.00 91 1017.6
20260830095642 73 166 0.9 3.5 0.00 0.00 0.00 90 1017.6
20260830095142 73 191 0.9 2.6 0.00 0.00 0.00 89 1017.7
20260830094642 73 214 0.9 2.6 0.00 0.00 0.00 90 1017.6
20260830094142 74 198 0.9 2.6 0.00 0.00 0.00 89 1017.6
20260830093642 74 172 0.9 2.6 0.00 0.00 0.00 89 1017.6
20260830093142 74 172 0.9 2.6 0.00 0.00 0.00 89 1017.7
20260830092642 73 174 0.9 3.5 0.00 0.00 0.00 89 1017.7
20260830092142 73 179 0.9 2.6 0.00 0.00 0.00 89 1017.6
20260830091642 73 163 0.9 2.6 0.00 0.00 0.00 88 1017.6
20260830091142 73 207 0.9 2.6 0.00 0.00 0.00 89 1017.6
20260830090642 73 198 0.0 1.7 0.00 0.00 0.00 89 1017.7
20260830090142 73 197 0.0 2.6 0.00 0.00 0.00 88 1017.6
20260830085642 73 192 0.0 2.6 0.00 0.00 0.00 88 1017.7
20260830085142 73 174 0.0 1.7 0.00 0.00 0.00 88 1017.5
20260830084642 73 173 0.0 0.9 0.00 0.00 0.00 88 1017.4
20260830084142 72 173 0.0 0.9 0.00 0.00 0.00 88 1017.6
20260830083642 73 173 0.0 0.9 0.00 0.00 0.00 86 1017.5
20260830083142 73 173 0.0 0.9 0.00 0.00 0.00 86 1017.5
20260830082642 73 173 0.0 0.9 0.00 0.00 0.00 86 1017.6
20260830082142 73 173 0.0 0.0 0.00 0.00 0.00 85 1017.6
20260830081642 73 173 0.0 1.7 0.00 0.00 0.00 84 1017.6
20260830081142 74 174 0.0 0.9 0.00 0.00 0.00 84 1017.6
20260830080642 74 174 0.0 0.9 0.00 0.00 0.00 84 1017.6
20260830080142 74 171 0.9 2.6 0.00 0.00 0.00 84 1017.7
20260830075642 74 188 0.9 2.6 0.00 0.00 0.00 84 1017.6
20260830075142 74 180 0.9 2.6 0.00 0.00 0.00 83 1017.6
20260830074642 74 174 0.9 2.6 0.00 0.00 0.00 83 1017.7
20260830074142 74 154 0.9 1.7 0.00 0.00 0.00 82 1017.7
20260830073642 74 158 0.9 2.6 0.00 0.00 0.00 82 1017.7
20260830073142 74 174 0.9 4.3 0.00 0.00 0.00 83 1017.7
20260830072642 74 131 0.9 3.5 0.00 0.00 0.00 82 1017.8
20260830072143 73 184 0.9 1.7 0.00 0.00 0.00 82 1017.9
20260830071643 73 177 0.9 1.7 0.00 0.00 0.00 82 1017.8
20260830071142 73 179 0.9 1.7 0.00 0.00 0.00 82 1017.8
20260830070643 74 177 0.0 1.7 0.00 0.00 0.00 82 1017.8
20260830070143 74 146 0.0 1.7 0.00 0.00 0.00 80 1017.6
20260830065643 74 146 0.0 1.7 0.00 0.00 0.00 81 1017.7
20260830065142 74 146 0.0 0.9 0.00 0.00 0.00 81 1017.7
20260830064642 74 146 0.0 1.7 0.00 0.00 0.00 80 1017.7
20260830064143 74 146 0.0 0.9 0.00 0.00 0.00 81 1017.7
20260830063642 74 146 0.0 1.7 0.00 0.00 0.00 80 1017.8
20260830063143 74 159 0.0 0.9 0.00 0.00 0.00 80 1017.7
20260830062643 74 159 0.0 1.7 0.00 0.00 0.00 80 1017.8
20260830062143 74 159 0.0 0.9 0.00 0.00 0.00 81 1017.8
20260830061643 74 159 0.0 0.9 0.00 0.00 0.00 80 1017.8
20260830061143 75 159 0.0 1.7 0.00 0.00 0.00 79 1017.8
20260830060643 75 159 0.0 0.9 0.00 0.00 0.00 79 1017.9
20260830060143 75 159 0.0 1.7 0.00 0.00 0.00 79 1017.9
20260830055643 75 167 0.0 1.7 0.00 0.00 0.00 79 1017.9
20260830055143 75 138 0.0 0.9 0.00 0.00 0.00 79 1017.9
20260830054643 75 138 0.0 1.7 0.00 0.00 0.00 79 1017.8
20260830054143 75 138 0.0 0.9 0.00 0.00 0.00 79 1017.7
20260830053643 75 134 0.0 1.7 0.00 0.00 0.00 79 1017.8
20260830053143 75 133 0.0 1.7 0.00 0.00 0.00 79 1017.8
20260830052643 75 139 0.0 1.7 0.00 0.00 0.00 80 1017.9
20260830052143 75 96 0.0 0.9 0.00 0.00 0.00 79 1017.9
20260830051643 74 96 0.0 0.9 0.00 0.00 0.00 79 1017.9
20260830051143 74 96 0.0 0.9 0.00 0.00 0.00 79 1017.9
20260830050643 75 96 0.0 0.9 0.00 0.00 0.00 80 1018.0
20260830050143 75 96 0.0 0.9 0.00 0.00 0.00 79 1018.0
20260830045643 75 96 0.0 1.7 0.00 0.00 0.00 79 1018.0
20260830045143 75 99 0.0 0.0 0.00 0.00 0.00 79 1018.1
20260830044643 75 99 0.0 0.9 0.00 0.00 0.00 79 1018.1
20260830044143 75 100 0.0 0.9 0.00 0.00 0.00 79 1018.0
20260830043643 75 101 0.0 0.9 0.00 0.00 0.00 78 1018.0
20260830043143 76 101 0.0 0.9 0.00 0.00 0.00 78 1017.9
20260830042643 76 101 0.0 1.7 0.00 0.00 0.00 76 1018.0
20260830042143 77 102 0.0 1.7 0.00 0.00 0.00 76 1017.9
20260830041643 77 101 0.0 0.9 0.00 0.00 0.00 75 1017.9
20260830041143 77 88 0.0 0.9 0.00 0.00 0.00 75 1017.8
20260830040643 78 86 0.0 0.9 0.00 0.00 0.00 75 1017.8
20260830040143 78 86 0.0 1.7 0.00 0.00 0.00 74 1017.8
20260830035643 77 83 0.9 2.6 0.00 0.00 0.00 75 1017.7
20260830035143 77 110 0.0 2.6 0.00 0.00 0.00 75 1017.8
20260830034643 76 151 0.0 0.0 0.00 0.00 0.00 77 1017.8